Find Starlink 30306

NORAD ID: 57633 Int'l Des: 2023-122 Owner: SPXS Country: US Constellation: starlink operational
LEOCIRCULAR

Aktuelle Ansicht

3D-Globus wird geladen...

Über Starlink 30306

Beschreibung wird geladen...

Nächste Überflüge

Passes for default location (London). Set your location on the main map for personalized predictions.

Höhenverlauf

Loading altitude history...

Zweizeiliger Elementsatz

1 57633U 23122B 26146.03614696 .00003354 00000-0 13137-3 0 9991
2 57633 43.0058 15.9037 0001685 277.5847 82.4814 15.27573405154030
Epoch: 26. Mai 2026 • Age: 18 hours

Aktueller Status

Höhe 486.6 km
Geschwindigkeit 7.63 km/s
Subsatellitenpunkt 40.31°N, 84.39°W
Startdatum 17. Aug. 2023
Alter 2.7 years
Typ internet

Technische Details

Klassifizierung Payload
Masse 730.00 kg
Trockenmasse 700.00 kg
Gesamtmasse 730.00 kg
Länge 0.30 m
Durchmesser 4.10 m
Spannweite 29.00 m
Form Box + pan
Hersteller SPXS
Bus-Typ Starlink V2M
Phasenstatus In Orbit
Besitzer/Staat SPXS/US

Most Searched